Wetterdaten: Woche 02.02.09 - 08.02.09 (KW6)
Datum Zeit Temp. Innen Temp. Aussen Feuchte Inne Feuchte Auss Luftdruck Regen ab 0,1 Wind
02.02.2009 00:00 15,0 C -0,8 C 33 % 69 % 1006,4 hPa 0,0 l/m 0,7 km/h (0 Bft)
02.02.2009 01:00 15,0 C -0,7 C 32 % 69 % 1005,5 hPa 0,0 l/m 0,0 km/h (0 Bft)
02.02.2009 02:00 15,0 C -0,7 C 33 % 70 % 1005,4 hPa 0,0 l/m 0,0 km/h (0 Bft)
02.02.2009 03:00 15,0 C -0,7 C 33 % 72 % 1004,5 hPa 0,0 l/m 0,2 km/h (0 Bft)
02.02.2009 04:00 15,0 C -1,0 C 33 % 73 % 1003,5 hPa 0,0 l/m 0,0 km/h (0 Bft)
02.02.2009 05:00 15,0 C -1,4 C 33 % 75 % 1003,1 hPa 0,0 l/m 0,0 km/h (0 Bft)
02.02.2009 06:00 15,0 C -1,3 C 33 % 77 % 1002,5 hPa 0,0 l/m 0,0 km/h (0 Bft)
02.02.2009 07:00 15,0 C -0,9 C 34 % 77 % 1002,0 hPa 0,0 l/m 0,1 km/h (0 Bft)
02.02.2009 08:00 14,9 C -0,5 C 34 % 76 % 1001,5 hPa 0,0 l/m 0,0 km/h (0 Bft)
02.02.2009 09:00 14,3 C -0,0 C 34 % 75 % 1001,5 hPa 0,0 l/m 0,0 km/h (0 Bft)
02.02.2009 10:00 14,1 C 0,6 C 35 % 75 % 1001,3 hPa 0,0 l/m 0,0 km/h (0 Bft)
02.02.2009 11:00 14,4 C 1,2 C 36 % 74 % 1000,5 hPa 0,0 l/m 0,2 km/h (0 Bft)
02.02.2009 12:00 14,7 C 1,6 C 37 % 74 % 1000,5 hPa 0,0 l/m 0,0 km/h (0 Bft)
02.02.2009 13:00 14,9 C 2,3 C 37 % 73 % 999,6 hPa 0,0 l/m 0,0 km/h (0 Bft)
02.02.2009 14:00 14,9 C 4,0 C 38 % 69 % 998,5 hPa 0,0 l/m 0,5 km/h (0 Bft)
02.02.2009 15:00 15,0 C 5,0 C 38 % 65 % 998,4 hPa 0,0 l/m 0,9 km/h (0 Bft)
02.02.2009 16:00 15,0 C 5,0 C 39 % 62 % 997,6 hPa 0,0 l/m 0,0 km/h (0 Bft)
02.02.2009 17:00 15,1 C 4,4 C 42 % 65 % 997,4 hPa 0,0 l/m 0,0 km/h (0 Bft)
02.02.2009 18:00 15,1 C 3,6 C 41 % 67 % 997,4 hPa 0,0 l/m 0,0 km/h (0 Bft)
02.02.2009 19:00 15,3 C 3,7 C 40 % 67 % 997,4 hPa 0,0 l/m 0,0 km/h (0 Bft)
02.02.2009 20:00 15,5 C 3,8 C 41 % 67 % 997,4 hPa 0,0 l/m 0,0 km/h (0 Bft)
02.02.2009 21:00 15,6 C 3,5 C 43 % 68 % 997,4 hPa 0,0 l/m 0,1 km/h (0 Bft)
02.02.2009 22:00 15,6 C 3,3 C 42 % 69 % 998,1 hPa 0,0 l/m 0,1 km/h (0 Bft)
02.02.2009 23:00 15,5 C 3,1 C 41 % 71 % 998,4 hPa 0,0 l/m 0,4 km/h (0 Bft)
03.02.2009 00:00 15,5 C 3,2 C 40 % 71 % 998,4 hPa 0,0 l/m 0,0 km/h (0 Bft)
03.02.2009 01:00 15,5 C 3,3 C 40 % 72 % 998,2 hPa 0,0 l/m 0,5 km/h (0 Bft)
03.02.2009 02:00 15,5 C 3,2 C 40 % 72 % 998,4 hPa 0,0 l/m 0,1 km/h (0 Bft)
03.02.2009 03:00 15,6 C 3,1 C 40 % 73 % 998,4 hPa 0,0 l/m 0,1 km/h (0 Bft)
03.02.2009 04:00 15,6 C 3,0 C 39 % 74 % 998,4 hPa 0,0 l/m 0,2 km/h (0 Bft)
03.02.2009 05:00 15,6 C 2,9 C 39 % 75 % 998,4 hPa 0,0 l/m 0,0 km/h (0 Bft)
03.02.2009 06:00 15,6 C 2,5 C 39 % 75 % 998,4 hPa 0,0 l/m 0,0 km/h (0 Bft)
03.02.2009 07:00 15,6 C 2,0 C 39 % 76 % 998,6 hPa 0,0 l/m 0,0 km/h (0 Bft)
03.02.2009 08:00 15,6 C 1,8 C 39 % 77 % 999,2 hPa 0,0 l/m 0,0 km/h (0 Bft)
03.02.2009 09:00 15,6 C 2,0 C 39 % 78 % 999,5 hPa 0,0 l/m 0,0 km/h (0 Bft)
03.02.2009 10:00 15,6 C 3,2 C 39 % 78 % 999,4 hPa 0,0 l/m 0,0 km/h (0 Bft)
03.02.2009 11:00 15,6 C 4,9 C 39 % 75 % 999,4 hPa 0,0 l/m 0,4 km/h (0 Bft)
03.02.2009 12:00 15,5 C 7,6 C 39 % 70 % 999,4 hPa 0,0 l/m 0,7 km/h (0 Bft)
03.02.2009 13:00 15,6 C 8,4 C 40 % 66 % 999,4 hPa 0,0 l/m 0,7 km/h (0 Bft)
03.02.2009 14:00 15,6 C 7,8 C 40 % 67 % 999,4 hPa 0,0 l/m 0,1 km/h (0 Bft)
03.02.2009 15:00 15,6 C 6,7 C 40 % 71 % 999,4 hPa 0,0 l/m 0,6 km/h (0 Bft)
03.02.2009 16:00 15,6 C 5,3 C 41 % 75 % 999,4 hPa 0,0 l/m 0,3 km/h (0 Bft)
03.02.2009 17:00 15,6 C 4,2 C 41 % 78 % 999,6 hPa 0,0 l/m 0,8 km/h (0 Bft)
03.02.2009 18:00 15,6 C 3,2 C 41 % 81 % 1000,4 hPa 0,0 l/m 0,0 km/h (0 Bft)
03.02.2009 19:00 15,8 C 2,6 C 41 % 83 % 1000,5 hPa 0,0 l/m 0,2 km/h (0 Bft)
03.02.2009 20:00 15,9 C 2,1 C 41 % 85 % 1000,5 hPa 0,0 l/m 0,1 km/h (0 Bft)
03.02.2009 21:00 16,0 C 1,6 C 41 % 85 % 1000,5 hPa 0,0 l/m 0,0 km/h (0 Bft)
03.02.2009 22:00 16,0 C 1,0 C 40 % 85 % 1000,5 hPa 0,0 l/m 0,0 km/h (0 Bft)
03.02.2009 23:00 16,0 C 0,7 C 40 % 85 % 1000,5 hPa 0,0 l/m 0,0 km/h (0 Bft)
04.02.2009 00:00 15,9 C 0,6 C 40 % 85 % 1000,1 hPa 0,0 l/m 0,0 km/h (0 Bft)
04.02.2009 01:00 15,8 C 0,6 C 40 % 86 % 999,5 hPa 0,5 l/m 0,0 km/h (0 Bft)
04.02.2009 02:00 15,8 C 0,6 C 40 % 86 % 999,5 hPa 0,0 l/m 0,0 km/h (0 Bft)
04.02.2009 03:00 15,8 C 0,6 C 40 % 86 % 999,5 hPa 0,0 l/m 0,0 km/h (0 Bft)
04.02.2009 04:00 15,7 C 0,6 C 40 % 86 % 998,6 hPa 0,0 l/m 0,0 km/h (0 Bft)
04.02.2009 05:00 15,7 C 0,6 C 40 % 86 % 998,5 hPa 0,0 l/m 0,0 km/h (0 Bft)
04.02.2009 06:00 15,7 C 0,4 C 40 % 87 % 998,5 hPa 0,0 l/m 0,0 km/h (0 Bft)
04.02.2009 07:00 15,7 C 0,4 C 40 % 87 % 998,5 hPa 0,0 l/m 0,0 km/h (0 Bft)
04.02.2009 08:00 15,7 C 0,4 C 40 % 87 % 998,5 hPa 0,0 l/m 0,0 km/h (0 Bft)
04.02.2009 09:00 15,7 C 0,5 C 40 % 87 % 998,5 hPa 0,5 l/m 0,0 km/h (0 Bft)
04.02.2009 10:00 15,7 C 0,6 C 40 % 87 % 998,5 hPa 0,0 l/m 0,0 km/h (0 Bft)
04.02.2009 11:00 15,7 C 0,9 C 40 % 87 % 998,5 hPa 0,0 l/m 0,0 km/h (0 Bft)
04.02.2009 12:00 15,7 C 1,2 C 40 % 87 % 997,5 hPa 0,0 l/m 0,0 km/h (0 Bft)
04.02.2009 13:00 15,7 C 1,7 C 40 % 88 % 997,1 hPa 0,0 l/m 0,0 km/h (0 Bft)
04.02.2009 14:00 15,8 C 2,3 C 41 % 88 % 996,4 hPa 0,0 l/m 0,0 km/h (0 Bft)
04.02.2009 15:00 15,8 C 2,4 C 41 % 88 % 996,4 hPa 0,0 l/m 0,0 km/h (0 Bft)
04.02.2009 16:00 15,8 C 2,3 C 41 % 88 % 996,1 hPa 0,0 l/m 0,0 km/h (0 Bft)
04.02.2009 17:00 15,8 C 2,1 C 41 % 88 % 996,4 hPa 0,0 l/m 0,0 km/h (0 Bft)
04.02.2009 18:00 15,8 C 1,8 C 41 % 88 % 996,4 hPa 0,0 l/m 0,0 km/h (0 Bft)
04.02.2009 19:00 15,8 C 1,3 C 41 % 87 % 996,5 hPa 0,0 l/m 0,0 km/h (0 Bft)
04.02.2009 20:00 15,9 C 1,3 C 41 % 87 % 996,5 hPa 0,0 l/m 0,0 km/h (0 Bft)
04.02.2009 21:00 15,9 C 1,4 C 41 % 88 % 996,5 hPa 0,0 l/m 0,0 km/h (0 Bft)
04.02.2009 22:00 15,9 C 1,5 C 41 % 88 % 996,5 hPa 0,0 l/m 0,0 km/h (0 Bft)
04.02.2009 23:00 15,9 C 1,5 C 41 % 88 % 996,5 hPa 0,0 l/m 0,0 km/h (0 Bft)
05.02.2009 00:00 15,8 C 1,7 C 41 % 88 % 996,5 hPa 0,0 l/m 0,0 km/h (0 Bft)
05.02.2009 01:00 15,9 C 1,7 C 41 % 88 % 995,6 hPa 0,0 l/m 0,0 km/h (0 Bft)
05.02.2009 02:00 15,9 C 1,3 C 41 % 88 % 995,5 hPa 0,0 l/m 0,0 km/h (0 Bft)
05.02.2009 03:00 15,8 C 1,2 C 41 % 88 % 995,1 hPa 0,0 l/m 0,0 km/h (0 Bft)
05.02.2009 04:00 15,8 C 1,1 C 41 % 88 % 994,4 hPa 0,0 l/m 0,0 km/h (0 Bft)
05.02.2009 05:00 15,8 C 1,2 C 41 % 88 % 993,8 hPa 0,0 l/m 0,0 km/h (0 Bft)
05.02.2009 06:00 15,8 C 1,8 C 41 % 88 % 993,2 hPa 0,0 l/m 0,0 km/h (0 Bft)
05.02.2009 07:00 15,9 C 1,9 C 41 % 88 % 992,4 hPa 0,0 l/m 0,1 km/h (0 Bft)
05.02.2009 08:00 15,9 C 2,4 C 41 % 88 % 992,4 hPa 0,0 l/m 0,2 km/h (0 Bft)
05.02.2009 09:00 15,9 C 3,1 C 41 % 88 % 992,9 hPa 0,0 l/m 0,4 km/h (0 Bft)
05.02.2009 10:00 15,9 C 3,4 C 41 % 87 % 993,1 hPa 0,0 l/m 0,0 km/h (0 Bft)
05.02.2009 11:00 15,9 C 4,0 C 41 % 87 % 993,4 hPa 0,5 l/m 0,1 km/h (0 Bft)
05.02.2009 12:00 16,0 C 4,7 C 42 % 87 % 993,4 hPa 0,5 l/m 0,0 km/h (0 Bft)
05.02.2009 13:00 16,0 C 5,6 C 42 % 87 % 993,3 hPa 0,0 l/m 0,0 km/h (0 Bft)
05.02.2009 14:00 16,0 C 7,0 C 43 % 87 % 992,3 hPa 0,0 l/m 0,0 km/h (0 Bft)
05.02.2009 15:00 16,0 C 7,8 C 43 % 85 % 992,3 hPa 0,0 l/m 0,4 km/h (0 Bft)
05.02.2009 16:00 16,0 C 7,6 C 44 % 84 % 992,3 hPa 0,0 l/m 0,2 km/h (0 Bft)
05.02.2009 17:00 15,9 C 7,5 C 45 % 82 % 992,3 hPa 0,0 l/m 0,0 km/h (0 Bft)
05.02.2009 18:00 16,0 C 7,4 C 46 % 82 % 992,4 hPa 0,0 l/m 0,0 km/h (0 Bft)
05.02.2009 19:00 16,4 C 7,2 C 46 % 82 % 993,0 hPa 0,0 l/m 0,1 km/h (0 Bft)
05.02.2009 20:00 16,4 C 6,9 C 46 % 82 % 993,4 hPa 0,0 l/m 0,0 km/h (0 Bft)
05.02.2009 21:00 16,4 C 7,3 C 46 % 81 % 993,3 hPa 0,0 l/m 0,6 km/h (0 Bft)
05.02.2009 22:00 16,5 C 7,0 C 46 % 79 % 993,4 hPa 0,0 l/m 0,2 km/h (0 Bft)
05.02.2009 23:00 16,5 C 5,4 C 45 % 81 % 993,5 hPa 0,0 l/m 0,0 km/h (0 Bft)
06.02.2009 00:00 16,5 C 4,0 C 45 % 82 % 993,4 hPa 0,0 l/m 0,0 km/h (0 Bft)
06.02.2009 01:00 16,4 C 2,8 C 45 % 84 % 993,4 hPa 0,0 l/m 0,0 km/h (0 Bft)
06.02.2009 02:00 16,4 C 2,5 C 44 % 85 % 993,4 hPa 0,0 l/m 0,0 km/h (0 Bft)
06.02.2009 03:00 16,4 C 2,4 C 44 % 86 % 993,4 hPa 0,0 l/m 0,0 km/h (0 Bft)
06.02.2009 04:00 16,4 C 2,7 C 44 % 87 % 993,4 hPa 0,0 l/m 0,0 km/h (0 Bft)
06.02.2009 05:00 16,4 C 2,9 C 44 % 87 % 992,7 hPa 0,0 l/m 0,0 km/h (0 Bft)
06.02.2009 06:00 16,4 C 2,7 C 44 % 88 % 992,4 hPa 0,0 l/m 0,0 km/h (0 Bft)
06.02.2009 07:00 16,4 C 2,5 C 44 % 88 % 992,4 hPa 0,0 l/m 0,0 km/h (0 Bft)
06.02.2009 08:00 16,4 C 2,4 C 44 % 88 % 992,4 hPa 0,5 l/m 0,0 km/h (0 Bft)
06.02.2009 09:00 16,4 C 2,7 C 44 % 88 % 992,4 hPa 0,0 l/m 0,1 km/h (0 Bft)
06.02.2009 10:00 16,4 C 4,8 C 44 % 89 % 992,4 hPa 0,0 l/m 0,5 km/h (0 Bft)
06.02.2009 11:00 16,4 C 7,1 C 44 % 85 % 992,3 hPa 0,0 l/m 0,7 km/h (0 Bft)
06.02.2009 12:00 16,4 C 8,6 C 44 % 80 % 991,4 hPa 0,0 l/m 1,2 km/h (1 Bft)
06.02.2009 13:00 16,4 C 9,5 C 44 % 76 % 991,3 hPa 0,0 l/m 0,6 km/h (0 Bft)
06.02.2009 14:00 16,4 C 9,7 C 44 % 75 % 990,3 hPa 0,0 l/m 0,2 km/h (0 Bft)
06.02.2009 15:00 16,5 C 9,7 C 45 % 73 % 990,1 hPa 0,0 l/m 0,7 km/h (0 Bft)
06.02.2009 16:00 16,5 C 8,9 C 45 % 75 % 990,3 hPa 0,0 l/m 0,2 km/h (0 Bft)
06.02.2009 17:00 16,7 C 8,0 C 44 % 76 % 989,9 hPa 0,0 l/m 0,2 km/h (0 Bft)
06.02.2009 18:00 16,8 C 6,7 C 44 % 78 % 989,4 hPa 0,0 l/m 0,0 km/h (0 Bft)
06.02.2009 19:00 16,8 C 5,5 C 44 % 81 % 989,4 hPa 0,0 l/m 0,0 km/h (0 Bft)
06.02.2009 20:00 16,8 C 4,8 C 44 % 82 % 989,4 hPa 0,0 l/m 0,0 km/h (0 Bft)
06.02.2009 21:00 16,8 C 4,0 C 44 % 83 % 989,4 hPa 0,0 l/m 0,0 km/h (0 Bft)
06.02.2009 22:00 16,9 C 3,4 C 44 % 84 % 989,4 hPa 0,0 l/m 0,0 km/h (0 Bft)
06.02.2009 23:00 16,8 C 3,1 C 44 % 85 % 989,4 hPa 0,0 l/m 0,0 km/h (0 Bft)
07.02.2009 00:00 16,8 C 2,9 C 44 % 86 % 989,4 hPa 0,0 l/m 0,0 km/h (0 Bft)
07.02.2009 01:00 16,8 C 2,3 C 44 % 86 % 989,4 hPa 0,0 l/m 0,0 km/h (0 Bft)
07.02.2009 02:00 16,7 C 1,5 C 44 % 87 % 988,9 hPa 0,0 l/m 0,0 km/h (0 Bft)
07.02.2009 03:00 16,7 C 0,7 C 43 % 87 % 988,4 hPa 0,0 l/m 0,0 km/h (0 Bft)
07.02.2009 04:00 16,6 C 0,6 C 43 % 87 % 988,4 hPa 0,0 l/m 0,0 km/h (0 Bft)
07.02.2009 05:00 16,6 C 1,3 C 43 % 87 % 988,4 hPa 0,0 l/m 0,0 km/h (0 Bft)
07.02.2009 06:00 16,6 C 1,7 C 43 % 87 % 987,6 hPa 0,0 l/m 0,0 km/h (0 Bft)
07.02.2009 07:00 16,6 C 2,0 C 43 % 88 % 987,8 hPa 0,0 l/m 0,0 km/h (0 Bft)
07.02.2009 08:00 16,7 C 2,3 C 43 % 88 % 988,4 hPa 0,0 l/m 0,0 km/h (0 Bft)
07.02.2009 09:00 17,1 C 2,7 C 43 % 88 % 988,4 hPa 0,0 l/m 0,0 km/h (0 Bft)
07.02.2009 10:00 17,2 C 3,2 C 42 % 88 % 988,4 hPa 0,0 l/m 0,0 km/h (0 Bft)
07.02.2009 11:00 17,1 C 3,4 C 42 % 88 % 989,2 hPa 0,0 l/m 0,3 km/h (0 Bft)
07.02.2009 12:00 17,1 C 3,5 C 43 % 89 % 989,4 hPa 0,5 l/m 0,3 km/h (0 Bft)
07.02.2009 13:00 17,0 C 3,6 C 43 % 89 % 989,4 hPa 0,0 l/m 1,0 km/h (0 Bft)
07.02.2009 14:00 16,9 C 3,4 C 43 % 89 % 989,6 hPa 0,0 l/m 0,6 km/h (0 Bft)
07.02.2009 15:00 16,8 C 3,2 C 43 % 88 % 990,8 hPa 0,0 l/m 0,4 km/h (0 Bft)
07.02.2009 16:00 16,8 C 2,9 C 43 % 87 % 991,5 hPa 0,0 l/m 0,2 km/h (0 Bft)
07.02.2009 17:00 16,8 C 2,9 C 43 % 87 % 992,4 hPa 0,0 l/m 0,0 km/h (0 Bft)
07.02.2009 18:00 16,8 C 2,9 C 43 % 87 % 993,0 hPa 0,0 l/m 0,0 km/h (0 Bft)
07.02.2009 19:00 16,8 C 2,5 C 43 % 87 % 993,4 hPa 0,0 l/m 0,1 km/h (0 Bft)
07.02.2009 20:00 16,8 C 1,5 C 42 % 87 % 994,4 hPa 0,0 l/m 0,0 km/h (0 Bft)
07.02.2009 21:00 16,8 C 1,0 C 42 % 87 % 995,4 hPa 0,0 l/m 0,0 km/h (0 Bft)
07.02.2009 22:00 16,8 C 0,8 C 41 % 87 % 996,5 hPa 0,0 l/m 0,0 km/h (0 Bft)
07.02.2009 23:00 16,7 C 0,0 C 41 % 86 % 996,8 hPa 0,0 l/m 0,0 km/h (0 Bft)
08.02.2009 00:00 16,5 C -0,2 C 41 % 87 % 997,5 hPa 0,0 l/m 0,0 km/h (0 Bft)
08.02.2009 01:00 16,4 C -0,1 C 41 % 87 % 997,5 hPa 0,0 l/m 0,4 km/h (0 Bft)
08.02.2009 02:00 16,4 C -0,2 C 40 % 87 % 998,0 hPa 0,0 l/m 0,0 km/h (0 Bft)
08.02.2009 03:00 16,3 C -0,4 C 40 % 87 % 998,5 hPa 0,0 l/m 0,2 km/h (0 Bft)
08.02.2009 04:00 16,2 C 0,1 C 40 % 88 % 998,6 hPa 0,0 l/m 0,6 km/h (0 Bft)
08.02.2009 05:00 16,2 C 0,5 C 40 % 88 % 999,5 hPa 0,0 l/m 0,8 km/h (0 Bft)
08.02.2009 06:00 16,1 C 0,3 C 40 % 87 % 999,5 hPa 0,0 l/m 0,1 km/h (0 Bft)
08.02.2009 07:00 16,1 C -0,1 C 40 % 87 % 1000,5 hPa 0,0 l/m 0,8 km/h (0 Bft)
08.02.2009 08:00 16,1 C 0,4 C 41 % 88 % 1001,3 hPa 0,0 l/m 0,9 km/h (0 Bft)
08.02.2009 09:00 16,0 C 0,9 C 41 % 88 % 1002,3 hPa 0,0 l/m 0,4 km/h (0 Bft)
08.02.2009 10:00 16,0 C 1,5 C 41 % 89 % 1002,7 hPa 0,0 l/m 1,5 km/h (1 Bft)
08.02.2009 11:00 16,0 C 2,3 C 41 % 88 % 1003,5 hPa 0,0 l/m 3,2 km/h (1 Bft)
08.02.2009 12:00 16,2 C 3,6 C 41 % 86 % 1003,4 hPa 0,0 l/m 3,0 km/h (1 Bft)
08.02.2009 13:00 16,4 C 4,2 C 41 % 79 % 1003,4 hPa 0,0 l/m 3,0 km/h (1 Bft)
08.02.2009 14:00 16,4 C 4,5 C 40 % 77 % 1003,4 hPa 0,0 l/m 3,1 km/h (1 Bft)
08.02.2009 15:00 16,5 C 4,2 C 40 % 76 % 1003,8 hPa 0,0 l/m 3,0 km/h (1 Bft)
08.02.2009 16:00 16,7 C 3,6 C 40 % 78 % 1004,4 hPa 0,0 l/m 1,6 km/h (1 Bft)
08.02.2009 17:00 16,9 C 3,0 C 40 % 81 % 1004,5 hPa 0,0 l/m 0,0 km/h (0 Bft)
08.02.2009 18:00 16,8 C 2,7 C 40 % 81 % 1004,5 hPa 0,0 l/m 0,2 km/h (0 Bft)
08.02.2009 19:00 16,6 C 2,6 C 40 % 80 % 1005,3 hPa 0,0 l/m 0,3 km/h (0 Bft)
08.02.2009 20:00 16,4 C 1,9 C 40 % 79 % 1005,5 hPa 0,0 l/m 0,0 km/h (0 Bft)
08.02.2009 21:00 16,4 C 0,9 C 40 % 81 % 1005,5 hPa 0,0 l/m 0,0 km/h (0 Bft)
08.02.2009 22:00 16,4 C 1,1 C 40 % 82 % 1005,6 hPa 0,0 l/m 0,0 km/h (0 Bft)
08.02.2009 23:00 16,4 C 1,3 C 40 % 83 % 1005,8 hPa 0,0 l/m 0,0 km/h (0 Bft)
Min-Datum _ 02.02.09 02.02.09 02.02.09 02.02.09 07.02.09 - 02.02.09
_ Min-Zeit 10:36 05:12 01:16 16:20 06:10 - 00:00
Minimum _ 13,7 C -1,5 C 32 % 61 % 987,4 hPa - 0,0 km/h (0 Bft)
Max-Datum _ 07.02.09 06.02.09 05.02.09 06.02.09 02.02.09 04.02.09 03.02.09
_ Max-Zeit 10:16 14:58 18:08 09:32 00:00 01:30 12:34
Maximum _ 17,2 C 10,1 C 46 % 89 % 1006,5 hPa 0,5 l/m 22,1 km/h
N (4 Bft)
Durchschnitt _ 16,0 C 2,8 C 41 % 82 % 996,5 hPa #3,1 l/m 0,2 km/h (0 Bft)
© 2012 W. Hausmann